User: anonymous   Login
Location: Unspecified
(0.0000°N, 0.0000°E)
Time: 22:24:01
(UTC+00:00)
Language:

STARLINK-35628 - Orbit

View from above orbital plane
View from above orbital plane
View from above satellite
View from above satellite

Ground track
Ground track

The orbit is defined by the following mean orbital elements,

1 66123U          26145.43760961 +.00000000 +00000-0 +40435-3 0 00004
2 66123  53.1592  42.9458 0001086  82.1889 277.9235 15.30211841    09
Epoch (UTC): 25 May 2026 10:30:09
Eccentricity: 0.0001086
inclination: 53.1592°
perigee height: 474 km
apogee height: 476 km
right ascension of ascending node: 42.9458°
argument of perigee: 82.1889°
revolutions per day: 15.30211841
mean anomaly at epoch: 277.9235°

The dashed part of the orbit path shows where the satellite is in the earth's shadow,  

DLR